Regional Weather Roundup
Issued by NWS

Home | Current Version | Previous Version | Text Only | Print | Product List | Glossary On
Versions: 1 2 3 4 5 6 7 8 9 10 11 12 13 14 15 16 17 18 19 20 21 22 23 24 25 26 27 28 29 30 31 32 33 34 35 36 37 38 39 40 41 42 43 44 45 46 47 48 49 50
000
ASUS44 KFWD 010615
RWRTX
NORTH TEXAS HOURLY WEATHER ROUNDUP
NATIONAL WEATHER SERVICE FORT WORTH TX
1200 AM CST SUN FEB 01 2015

NOTE: "FAIR" INDICATES FEW OR NO CLOUDS BELOW 12,000 FEET WITH NO
SIGNIFICANT WEATHER AND/OR OBSTRUCTIONS TO VISIBILITY.

TXZ118-119-010700-
DALLAS/FORT WORTH METROPLEX

CITY           SKY/WX    TMP DP  RH WIND       PRES   REMARKS
DFW AIRPORT    LGT RAIN  53  52  96 S14       29.87F FOG
6HR MIN TEMP:  49; 6HR MAX TEMP:  53; 6HR PCP:  0.34;

DALLAS LOVE    LGT RAIN  54  52  93 S13       29.87F FOG
6HR MIN TEMP:  51; 6HR MAX TEMP:  54; 6HR PCP:  0.24;

FTW MEACHAM    LGT RAIN  55  53  93 S7        29.87S FOG
6HR MIN TEMP:  49; 6HR MAX TEMP:  54; 6HR PCP:  0.43;

DAL-EXECUTIVE  RAIN      56  53  90 S9G21     29.87F FOG
6HR MIN TEMP:  52; 6HR MAX TEMP:  56; 6HR PCP:  0.22;

FTW-ALLIANCE   LGT RAIN  52  52 100 S6        29.87S FOG
6HR MIN TEMP:  47; 6HR MAX TEMP:  52; 6HR PCP:  0.51;

FTW-SPINKS     RAIN      54  53  95 S8        29.89F
6HR MIN TEMP:  49; 6HR MAX TEMP:  54; 6HR PCP:  0.28;

ARLINGTON      LGT RAIN  55  52  89 S13       29.88S FOG
6HR MIN TEMP:  50; 6HR MAX TEMP:  55; 6HR PCP:  0.21;

GRAND PRAIRIE  CLOUDY    54  54 100 S8        29.89F
6HR MIN TEMP:  49; 6HR MAX TEMP:  54; 6HR PCP:  0.14;

ADDISON        LGT RAIN N/A N/A N/A S14G21    29.89F
                                      6HR PCP:  0.24;

MESQUITE       CLOUDY    53  51  93 S12       29.89F
6HR MIN TEMP:  50; 6HR MAX TEMP:  54; 6HR PCP:  0.19;

LANCASTER      LGT RAIN  54  51  91 S10       29.90F
6HR MIN TEMP:  50; 6HR MAX TEMP:  54; 6HR PCP:  0.15;

$$

TXZ091>094-102>105-117-120-121-131>134-010700-
NORTH CENTRAL TEXAS

CITY           SKY/WX    TMP DP  RH WIND       PRES   REMARKS
SHRMAN/DENISON RAIN      50  50  99 S8        29.88S
6HR MIN TEMP:  47; 6HR MAX TEMP:  50; 6HR PCP:  0.44;

GAINESVILLE    DRIZZLE   49  48  99 S5        29.90F
6HR MIN TEMP:  46; 6HR MAX TEMP:  49; 6HR PCP:  0.51;

BOWIE          CLOUDY    49  49  99 S8        29.86F
6HR MIN TEMP:  45; 6HR MAX TEMP:  49; 6HR PCP:  0.37;

BRIDGEPORT     CLOUDY    51  51 100 CALM      29.90S FOG
6HR MIN TEMP:  47; 6HR MAX TEMP:  51; 6HR PCP:  0.35;

DECATUR        CLOUDY    50  50 100 S8        29.87F FOG
6HR MIN TEMP:  46; 6HR MAX TEMP:  50; 6HR PCP:  0.30;

DENTON         LGT RAIN  51  51 100 W7        29.88F FOG
6HR MIN TEMP:  47; 6HR MAX TEMP:  51; 6HR PCP:  0.44;

MCKINNEY       CLOUDY    51  50  96 S14       29.87F
6HR MIN TEMP:  49; 6HR MAX TEMP:  51; 6HR PCP:  0.24;

GREENVILLE     CLOUDY    52  50  93 S13       29.90F
ROCKWALL       CLOUDY    53  52  96 SE15G21   29.87F
6HR MIN TEMP:  49; 6HR MAX TEMP:  53; 6HR PCP:  0.18;

TERRELL        LGT RAIN  55  52  89 S14       29.90F FOG
6HR MIN TEMP:  52; 6HR MAX TEMP:  57; 6HR PCP:  0.10;

WAXAHACHIE     DRIZZLE   54  54 100 S14       29.90F
6HR MIN TEMP:  50; 6HR MAX TEMP:  54; 6HR PCP:  0.19;

CLEBURNE       DRIZZLE   54  54 100 S9        29.89F
GRANBURY       RAIN      55  53  94 SE7       29.89F
6HR MIN TEMP:  48; 6HR MAX TEMP:  55; 6HR PCP:  0.23;

$$

TXZ083>090-098>101-113>116-127>130-139>142-154-155-010700-
WESTERN NORTH TEXAS

CITY           SKY/WX    TMP DP  RH WIND       PRES   REMARKS
WICHITA FALLS  CLOUDY    48  47  96 S10       29.85F FOG
6HR MIN TEMP:  45; 6HR MAX TEMP:  48; 6HR PCP:  0.18;

WF-KICKAPOO    CLOUDY    42  42 100 S6        29.87F FOG     WCI  38
6HR MIN TEMP:  39; 6HR MAX TEMP:  42; 6HR PCP:  0.01;

VERNON         CLOUDY    46  43  88 CALM      29.88R VSB 3/4
6HR MIN TEMP:  42; 6HR MAX TEMP:  47; 6HR PCP:  0.03;

ABILENE        CLOUDY    54  52  93 SW7       29.88S
6HR MIN TEMP:  51; 6HR MAX TEMP:  54;

ABILENE-DYESS  CLOUDY    54  54 100 SW8       29.87S
6HR MIN TEMP:  52; 6HR MAX TEMP:  54;

BRECKENRIDGE   CLOUDY    54  53  97 SW7       29.87F
6HR MIN TEMP:  51; 6HR MAX TEMP:  54;

GRAHAM         CLOUDY    49  49 100 CALM      29.86F
6HR MIN TEMP:  46; 6HR MAX TEMP:  49; 6HR PCP:  0.01;

MINERAL WELLS  CLOUDY    50  49  96 S6        29.87S FOG
6HR MIN TEMP:  46; 6HR MAX TEMP:  50; 6HR PCP:  0.29;

STEPHENVILLE   CLOUDY    53  52  95 S6        29.91F
6HR MIN TEMP:  47; 6HR MAX TEMP:  53; 6HR PCP:  0.20;

COMANCHE       CLOUDY    54  54 100 SW7       29.90S FOG
6HR MIN TEMP:  49; 6HR MAX TEMP:  54; 6HR PCP:  0.13;

BROWNWOOD      CLOUDY    54  54 100 SE6       29.90F FOG
COLEMAN        CLOUDY    53  53 100 SW6       29.89S FOG
6HR MIN TEMP:  51; 6HR MAX TEMP:  53;

BRADY          CLOUDY    55  55 100 S3        29.89S
$$

TXZ143>147-156>162-174-175-010700-
CENTRAL TEXAS

CITY           SKY/WX    TMP DP  RH WIND       PRES   REMARKS
WACO           CLOUDY    58  56  93 S14G24    29.90F FOG
6HR MIN TEMP:  53; 6HR MAX TEMP:  58; 6HR PCP:  0.20;

WACO-MCGREGOR  CLOUDY    59  54  82 S17       29.91F
6HR MIN TEMP:  54; 6HR MAX TEMP:  59; 6HR PCP:  0.14;

HILLSBORO      LGT RAIN  58  55  92 SE16      29.89F
6HR MIN TEMP:  53; 6HR MAX TEMP:  58; 6HR PCP:  0.14;

CORSICANA      LGT RAIN  58  54  86 S13       29.93F
6HR MIN TEMP:  54; 6HR MAX TEMP:  57; 6HR PCP:  0.02;

MEXIA          CLOUDY    56  55  95 S13G18    29.92S
6HR MIN TEMP:  54; 6HR MAX TEMP:  57;

HEARNE         CLOUDY    58  57  96 SE7       29.96F FOG
6HR MIN TEMP:  57; 6HR MAX TEMP:  58; 6HR PCP:  0.02;

CAMERON        LGT RAIN  60  59  96 SE8       29.92F
6HR MIN TEMP:  58; 6HR MAX TEMP:  60; 6HR PCP:  0.07;

TEMPLE         CLOUDY    59  55  88 S16       29.89F
6HR MIN TEMP:  55; 6HR MAX TEMP:  59; 6HR PCP:  0.05;

KILLEEN        CLOUDY    60  59  97 S10       29.90S
6HR MIN TEMP:  53; 6HR MAX TEMP:  60; 6HR PCP:  0.11;

KILLEEN-SKYLRK CLOUDY    61  55  82 S13       29.88F
6HR MIN TEMP:  55; 6HR MAX TEMP:  61; 6HR PCP:  0.21;

FORT HOOD      CLOUDY    61  60  96 S12       29.89F
6HR MIN TEMP:  53; 6HR MAX TEMP:  61; 6HR PCP:  0.19;

GATESVILLE     MOCLDY    61  61 100 S8        29.92S
LAMPASAS       CLOUDY    58  57  97 S8        29.90S
6HR MIN TEMP:  50; 6HR MAX TEMP:  58; 6HR PCP:  0.07;

$$

TXZ095>097-106>112-122>126-135>138-148>153-164>167-010700-
EAST TEXAS

CITY           SKY/WX    TMP DP  RH WIND       PRES   REMARKS
PARIS          CLOUDY    48  43  81 SE15      29.90F
6HR MIN TEMP:  46; 6HR MAX TEMP:  54; 6HR PCP:  0.09;

SULPHUR SPRNGS LGT RAIN  53  51  94 S13G21    29.92F
6HR MIN TEMP:  51; 6HR MAX TEMP:  56; 6HR PCP:  0.05;

MOUNT PLEASANT CLOUDY    51  47  87 SE7       29.94F
6HR MIN TEMP:  51; 6HR MAX TEMP:  55;

GILMER         LGT RAIN  53  50  88 SE8       29.94F
6HR MIN TEMP:  53; 6HR MAX TEMP:  55; 6HR PCP:  0.02;

MINEOLA        CLOUDY    54  54 100 S7        29.93F
TYLER          CLOUDY    55  50  83 S13G22    29.94F
6HR MIN TEMP:  55; 6HR MAX TEMP:  57; 6HR PCP:  0.03;

LONGVIEW       LGT RAIN  56  48  74 S7        29.95F
6HR MIN TEMP:  55; 6HR MAX TEMP:  59; 6HR PCP: TRACE;

MARSHALL       CLOUDY    58  48  69 S9        29.97F
6HR MIN TEMP:  56; 6HR MAX TEMP:  58;

ATHENS         CLOUDY    54  52  94 S9        29.93F
PALESTINE      CLOUDY    57  55  91 S8        29.97F
JACKSONVILLE   CLOUDY    56  53  88 MISG      29.96R
HENDERSON      CLOUDY    56  51  83 S6        29.97R
6HR MIN TEMP:  54; 6HR MAX TEMP:  57;

NACOGDOCHES    CLOUDY    55  50  82 SE13G21   29.96F
6HR MIN TEMP:  55; 6HR MAX TEMP:  57;

LUFKIN           N/A     60  53  77 SE20      29.95F
6HR MIN TEMP:  59; 6HR MAX TEMP:  61;

$$

SUPPLEMENTAL OBSERVATIONS (CENTRAL)

CITY           SKY/WX    TMP DP  RH WIND       PRES   REMARKS
LAKE TEXOMA      N/A     48  46  93 W3          N/A
PAT MAYSE LAKE   N/A     46  43  87 E12         N/A
GREENVILLE       N/A     54  50  87 S14         N/A
CEDAR HILL       N/A     55  52  88 S8G20       N/A
ATHENS           N/A     55  52  88 S10         N/A
PALESTINE        N/A     57  54  88 S8          N/A
LAKE LIMESTONE   N/A     57  54  88 SE8         N/A
MCGREGOR         N/A     59  57  94 S15G23      N/A



USA.gov is the U.S. government's official web portal to all federal, state and local government web resources and services.